[[{"header":{"parameterUnit":"m.s-1","parameterCategory":1,"la1":30.2991,"la2":30.254,"lo1":-89.0895,"lo2":-89.0444,"dx":0.0017,"dy":0.0017,"nx":28,"ny":28,"refTime":"2022-12-14T09:00:00:Z","depth":0,"parameterNumber":2,"parameterNumberName":"U-component_of_WINDS"},"data":[0,0,0,0,0,0,0,0,0,0,0,0,0,0,0,0,0,0,0,0,0,0,0,0,0,0,0,0,0,0,0,0,0,0,0,0,0,0,0,0,0,0,0,0,0,0,0,0,0,0,0,0,0,0,0,0,0,0,-3.6448,-3.645,0,-3.6567,-3.6568,-3.6569,-3.6587,-3.6586,-3.6584,-3.6583,-3.6704,-3.6708,-3.6712,0,0,0,0,0,0,0,0,0,0,0,0,0,-3.6237,-3.6241,-3.6448,-3.645,-3.6451,-3.6567,-3.6568,-3.657,-3.6587,-3.6585,-3.6584,-3.6583,-3.6703,-3.6708,-3.6713,0,0,0,0,0,0,0,0,0,0,0,0,0,-3.6339,-3.6242,-3.6448,-3.6474,-3.6477,-3.6566,-3.6568,-3.657,-3.6587,-3.6585,-3.6584,-3.6582,-3.6701,-3.6707,-3.6714,-3.6785,0,0,-3.6733,-3.6736,0,0,0,0,0,0,0,0,-3.6333,-3.6347,-3.6468,-3.6472,-3.6476,-3.656,-3.6538,-3.6642,-3.6588,-3.6545,-3.6583,-3.6582,-3.6658,-3.6667,-3.6693,-3.6791,-3.6796,-3.6733,-3.6737,-3.674,-3.6742,0,0,0,0,0,0,0,-3.6326,-3.6342,-3.6495,-3.647,-3.6475,-3.6479,-3.6492,-3.6558,-3.6609,-3.6549,-3.655,-3.6564,-3.6659,-3.6687,-3.6696,-3.6798,-3.6733,-3.6739,-3.6743,-3.6745,-3.696,-3.6962,0,0,0,0,0,0,-3.6315,-3.6336,-3.6491,-3.6499,-3.6399,-3.6484,-3.6499,-3.6535,-3.6608,-3.6618,-3.6565,-3.6565,-3.6677,-3.6689,-3.67,-3.6788,-3.674,-3.6746,-3.675,-3.6958,-3.696,-3.6962,0,0,0,0,0,0,-3.631,-3.6328,-3.6487,-3.6418,-3.6438,-3.649,-3.653,-3.6538,-3.6566,-3.6621,-3.663,-3.6584,-3.6676,-3.6692,-3.6764,-3.6793,-3.6749,-3.6755,-3.6956,-3.6959,-3.6961,-3.6965,0,0,0,0,0,0,-3.6304,-3.6327,-3.6354,-3.6418,-3.6442,-3.6548,-3.6532,-3.6542,-3.6577,-3.6577,-3.6641,-3.665,-3.6676,-3.6754,-3.677,-3.6801,-3.676,-3.6953,-3.6957,-3.696,-3.6963,-3.6968,-3.6972,0,0,0,0,0,-3.6296,-3.6351,-3.6356,-3.6374,-3.6478,-3.655,-3.6563,-3.6592,-3.6579,-3.6607,-3.6643,-3.6648,-3.6788,-3.6762,-3.678,-3.6813,-3.6952,-3.6956,-3.696,-3.6961,-3.6967,-3.6972,0,0,0,0,0,0,-3.6288,-3.6359,-3.6366,-3.6443,-3.649,-3.6552,-3.6589,-3.6598,-3.665,-3.6648,-3.6681,-3.6696,-3.6766,-3.6797,-3.6767,-3.6886,-3.6868,-3.6877,-3.6863,-3.6869,-3.6874,-3.6864,-3.6765,0,0,0,0,0,-3.6296,-3.6348,-3.6408,-3.647,-3.6493,-3.6537,-3.6569,-3.6588,-3.6638,-3.6658,-3.6699,-3.6748,-3.6803,-3.6838,-3.6891,-3.6968,-3.6982,-3.7,-3.7004,-3.7008,-3.7014,-3.7056,-3.7064,-3.6976,-3.6976,-3.6976,0,0,-3.6311,-3.6356,-3.6387,-3.6469,-3.6508,-3.6562,-3.6554,-3.6611,-3.6651,-3.6667,-3.6737,-3.6769,-3.6826,-3.69,-3.6935,-3.6928,-3.7042,-3.7013,-3.7016,-3.702,-3.7061,-3.707,-3.7077,-3.6979,-3.6979,-3.6978,0,0,-3.6366,-3.6406,-3.6461,-3.6501,-3.656,-3.6589,-3.6602,-3.6664,-3.6686,-3.6757,-3.677,-3.6819,-3.6912,-3.6952,-3.6984,-3.7055,-3.7062,-3.7072,-3.7096,-3.7137,-3.7143,-3.715,-3.7174,-3.7182,-3.7078,-3.7078,-3.7078,0,-3.6377,-3.6458,-3.6489,-3.6545,-3.6581,-3.6599,-3.6655,-3.6692,-3.6765,-3.6789,-3.678,-3.6898,-3.6938,-3.7022,-3.7039,-3.7065,-3.7081,-3.7063,-3.714,-3.7147,-3.7153,-3.7176,-3.7185,-3.7079,-3.7079,-3.7078,-3.7078,0,-3.6469,-3.6525,-3.6563,-3.6633,-3.6673,-3.6729,-3.6768,-3.6805,-3.682,-3.685,-3.6923,-3.6971,-3.7034,-3.7056,-3.7071,-3.7142,-3.7136,-3.7133,-3.7116,-3.7161,-3.7184,-3.7193,-3.708,-3.7079,-3.7079,-3.7079,0,0,-3.652,-3.6608,-3.6621,-3.6653,-3.672,-3.6764,-3.6821,-3.6883,-3.6913,-3.6964,-3.7012,-3.7092,-3.709,-3.7127,-3.7147,-3.7183,-3.7235,-3.7176,-3.7178,-3.7184,-3.7315,-3.7315,-3.7324,-3.724,-3.7242,-3.7244,-3.7309,0,-3.6582,-3.6684,-3.6713,-3.6799,-3.6851,-3.6869,-3.6919,-3.6965,-3.6995,-3.7044,-3.7077,-3.7132,-3.7126,-3.7148,-3.7185,-3.722,-3.7261,-3.7217,-3.7285,-3.7287,-3.7268,-3.7336,-3.7337,-3.7396,-3.7318,-3.732,-3.7321,0,-3.6667,-3.6719,-3.6809,-3.687,-3.6893,-3.6937,-3.6996,-3.7042,-3.7095,-3.7115,-3.7156,-3.7173,-3.7233,-3.7215,-3.7298,-3.7267,-3.7297,-3.7319,-3.7322,-3.7328,-3.7305,-3.7343,-3.7416,-3.7424,-3.7335,-3.7334,-3.7333,0,-3.6693,-3.6786,-3.6852,-3.688,-3.6952,-3.6982,-3.7014,-3.7066,-3.7101,-3.7153,-3.7176,-3.7235,-3.7266,-3.7311,-3.7344,-3.7327,-3.7424,-3.7408,-3.7441,-3.744,-3.7458,-3.7456,-3.7536,-3.7481,-3.748,-3.748,-3.748,0,-3.6758,-3.6812,-3.6865,-3.6906,-3.6968,-3.7002,-3.7062,-3.7094,-3.714,-3.7187,-3.7207,-3.7251,-3.7292,-3.7341,-3.7367,-3.7432,-3.7446,-3.7463,-3.7469,-3.746,-3.7458,-3.7479,-3.7475,-3.7483,-3.7482,-3.7482,-3.7481,0,-3.6797,-3.6835,-3.6908,-3.6971,-3.6988,-3.703,-3.7084,-3.7124,-3.7155,-3.7214,-3.723,-3.7279,-3.7338,-3.7375,-3.7451,-3.7468,-3.7538,-3.7544,-3.752,-3.7522,-3.7552,-3.7548,-3.7647,-3.7661,-3.7597,-3.7598,-3.7598,0,-3.6835,-3.6877,-3.6945,-3.6977,-3.7009,-3.7062,-3.7099,-3.7134,-3.7171,-3.7235,-3.7267,-3.7328,-3.7378,-3.7471,-3.7513,-3.7571,-3.7577,-3.7607,-3.7585,-3.7575,-3.7576,-3.7572,-3.7576,-3.761,-3.7611,-3.7611,-3.7611,0,-3.6897,-3.6914,-3.6966,-3.7024,-3.7067,-3.7114,-3.7162,-3.7188,-3.7231,-3.7272,-3.7333,-3.7371,-3.7448,-3.7508,-3.7569,-3.7602,-3.7614,-3.7618,-3.7629,-3.7619,-3.7603,-3.7611,-3.7528,-3.7615,-3.7615,-3.7615,-3.7615,-3.7614,-3.6936,-3.6975,-3.7028,-3.7084,-3.7124,-3.7168,-3.7209,-3.7245,-3.7296,-3.7361,-3.7379,-3.7442,-3.7495,-3.7579,-3.7613,-3.7663,-3.7658,-3.7674,-3.7677,-3.768,-3.768,-3.7597,-3.7674,-3.7674,-3.7674,-3.7674,-3.7674,0,-3.6999,-3.7034,-3.7086,-3.7152,-3.7196,-3.7205,-3.7258,-3.7294,-3.7349,-3.7398,-3.7446,-3.7516,-3.7574,-3.7621,-3.768,-3.7711,-3.7718,-3.7726,-3.7723,-3.773,-3.7681,-3.7665,-3.7719,-3.7719,-3.7719,-3.7719,-3.7719,-3.7719,-3.7036,-3.7101,-3.7124,-3.7209,-3.7244,-3.7306,-3.7335,-3.7376,-3.7415,-3.7491,-3.7539,-3.757,-3.7617,-3.7681,-3.7734,-3.7747,-3.7767,-3.7773,-3.7786,-3.7739,-3.7734,-3.7729,-3.7714,-3.7777,-3.7778,-3.7831,-3.7832,-3.7832]},{"header":{"parameterUnit":"m.s-1","parameterCategory":1,"la1":30.2991,"la2":30.254,"lo1":-89.0895,"lo2":-89.0444,"dx":0.0017,"dy":0.0017,"nx":28,"ny":28,"refTime":"2022-12-14T09:00:00:Z","depth":0,"parameterNumber":3,"parameterNumberName":"V-component_of_WINDS"},"data":[0,0,0,0,0,0,0,0,0,0,0,0,0,0,0,0,0,0,0,0,0,0,0,0,0,0,0,0,0,0,0,0,0,0,0,0,0,0,0,0,0,0,0,0,0,0,0,0,0,0,0,0,0,0,0,0,0,0,4.2986,4.2987,0,4.3035,4.3036,4.3036,4.3024,4.3024,4.3023,4.3022,4.307,4.3072,4.3074,0,0,0,0,0,0,0,0,0,0,0,0,0,4.2882,4.2884,4.2986,4.2987,4.2987,4.3035,4.3036,4.3037,4.3025,4.3023,4.3022,4.3021,4.3069,4.3072,4.3074,0,0,0,0,0,0,0,0,0,0,0,0,0,4.2929,4.2885,4.2986,4.2987,4.2988,4.3035,4.3036,4.3037,4.3025,4.3023,4.3022,4.3021,4.3068,4.3072,4.3075,4.3123,0,0,4.3085,4.3086,0,0,0,0,0,0,0,0,4.2926,4.2933,4.2986,4.2987,4.2988,4.3022,4.3017,4.3066,4.3025,4.3011,4.3022,4.302,4.3055,4.3059,4.3072,4.3126,4.3128,4.3085,4.3087,4.3088,4.3089,0,0,0,0,0,0,0,4.2923,4.2931,4.3006,4.2987,4.2988,4.2986,4.2991,4.3026,4.304,4.3012,4.3011,4.3017,4.3055,4.3069,4.3073,4.3128,4.3085,4.3088,4.309,4.3091,4.3228,4.323,0,0,0,0,0,0,4.2919,4.2928,4.3004,4.3007,4.2953,4.2989,4.2994,4.3013,4.304,4.3043,4.3018,4.3017,4.3064,4.3069,4.3074,4.3136,4.3088,4.3091,4.3093,4.3227,4.3229,4.3231,0,0,0,0,0,0,4.2917,4.2926,4.3002,4.2967,4.2977,4.2992,4.3013,4.3014,4.3028,4.3045,4.3047,4.3029,4.3063,4.307,4.3112,4.3137,4.3093,4.3096,4.3225,4.3227,4.323,4.3258,0,0,0,0,0,0,4.2914,4.2926,4.2944,4.2968,4.2979,4.3039,4.3014,4.3016,4.3034,4.3032,4.3056,4.3058,4.3062,4.3108,4.3116,4.3141,4.3098,4.3223,4.3226,4.3229,4.3255,4.3261,4.3266,0,0,0,0,0,4.2911,4.2948,4.2945,4.2954,4.3002,4.304,4.3047,4.3051,4.3036,4.3055,4.3066,4.3058,4.3133,4.3112,4.3121,4.3148,4.3221,4.3225,4.3229,4.3252,4.326,4.3266,0,0,0,0,0,0,4.2925,4.2951,4.2948,4.2994,4.3016,4.3038,4.3062,4.3058,4.3083,4.308,4.3084,4.309,4.3134,4.3144,4.3121,4.3198,4.3175,4.3181,4.319,4.3197,4.3203,4.32,4.3101,0,0,0,0,0,4.2934,4.2964,4.2984,4.3024,4.3035,4.3047,4.3064,4.3066,4.3087,4.3096,4.311,4.3131,4.316,4.3179,4.3206,4.3256,4.3262,4.3279,4.3285,4.3289,4.3295,4.3326,4.3334,4.3243,4.3243,4.3243,0,0,4.2952,4.297,4.2988,4.3027,4.3044,4.3075,4.3054,4.3087,4.311,4.31,4.3143,4.3154,4.3178,4.3225,4.3247,4.3236,4.3321,4.3294,4.3298,4.3301,4.333,4.3339,4.3347,4.3246,4.3245,4.3245,0,0,4.3002,4.3018,4.3054,4.3072,4.3098,4.3106,4.3115,4.3139,4.3147,4.319,4.3184,4.3211,4.326,4.3279,4.3294,4.3355,4.3349,4.3363,4.3394,4.3424,4.3431,4.3438,4.3462,4.347,4.3368,4.3368,4.3368,0,4.3022,4.3068,4.3073,4.3108,4.3126,4.312,4.3158,4.3174,4.3207,4.3221,4.3208,4.3271,4.3286,4.334,4.3355,4.3367,4.3379,4.3361,4.343,4.3436,4.3442,4.3466,4.3475,4.337,4.337,4.337,4.3369,0,4.3093,4.3125,4.3151,4.3186,4.3207,4.3243,4.3254,4.3275,4.3275,4.3285,4.333,4.3349,4.3381,4.3393,4.3393,4.3448,4.3441,4.3429,4.3406,4.3453,4.3475,4.3484,4.3373,4.3372,4.3371,4.3371,0,0,4.3152,4.3191,4.3201,4.3218,4.3248,4.3273,4.331,4.3343,4.3362,4.3386,4.3418,4.3461,4.3451,4.3469,4.3471,4.3497,4.3548,4.3482,4.3483,4.3496,4.3613,4.3624,4.3634,4.3543,4.3545,4.3546,4.3612,0,4.3207,4.3273,4.3279,4.3338,4.337,4.3366,4.3398,4.342,4.3431,4.346,4.3471,4.3503,4.3486,4.3497,4.3523,4.3536,4.3571,4.3531,4.3575,4.3576,4.3571,4.3645,4.3656,4.3717,4.362,4.3622,4.3623,0,4.328,4.3308,4.3371,4.34,4.3413,4.3442,4.3475,4.3502,4.3528,4.3534,4.3556,4.3555,4.3594,4.3568,4.3623,4.3596,4.3614,4.3623,4.3626,4.3632,4.3604,4.3655,4.3736,4.3746,4.3636,4.3635,4.3634,0,4.3321,4.3374,4.342,4.3434,4.3468,4.3489,4.3504,4.3528,4.3549,4.3577,4.3591,4.3623,4.3641,4.3666,4.3675,4.3655,4.373,4.3705,4.3738,4.3738,4.3755,4.3755,4.3843,4.3763,4.3763,4.3762,4.3762,0,4.3383,4.3422,4.344,4.3468,4.3513,4.352,4.3564,4.3577,4.36,4.3631,4.3628,4.3658,4.3666,4.3697,4.3704,4.375,4.3757,4.3765,4.3767,4.3767,4.3766,4.378,4.3777,4.3765,4.3764,4.3764,4.3763,0,4.3437,4.345,4.35,4.3529,4.3537,4.3569,4.3594,4.3622,4.3633,4.3673,4.3683,4.37,4.3737,4.3748,4.3791,4.3796,4.3851,4.3847,4.3843,4.3844,4.3878,4.3876,4.398,4.3995,4.3903,4.3904,4.3904,0,4.3477,4.3508,4.3541,4.3563,4.3579,4.3613,4.3636,4.3644,4.3667,4.3701,4.3725,4.3762,4.3792,4.3852,4.3868,4.3903,4.3902,4.3936,4.3907,4.3907,4.3906,4.3905,4.391,4.3942,4.3943,4.3944,4.3944,0,4.3548,4.3554,4.3586,4.3622,4.3649,4.3677,4.3703,4.3721,4.3734,4.376,4.3799,4.3823,4.3869,4.3907,4.3942,4.3958,4.3954,4.3953,4.3963,4.3965,4.3963,4.3968,4.3861,4.3951,4.395,4.395,4.395,4.3949,4.3599,4.3627,4.3656,4.3693,4.3715,4.3741,4.377,4.3785,4.3818,4.3858,4.386,4.3904,4.3931,4.3978,4.3996,4.403,4.402,4.4034,4.4038,4.4042,4.4046,4.3955,4.4036,4.4036,4.4035,4.4035,4.4035,0,4.3672,4.3691,4.3725,4.3765,4.3794,4.3789,4.3819,4.3844,4.3883,4.3909,4.394,4.3986,4.4023,4.4043,4.4081,4.4104,4.4104,4.4114,4.4114,4.4118,4.4051,4.404,4.4114,4.4114,4.4114,4.4114,4.4114,4.4114,4.3714,4.3764,4.3773,4.3834,4.3852,4.3896,4.3914,4.3939,4.396,4.4012,4.4044,4.4057,4.4082,4.4122,4.4156,4.4161,4.4176,4.4188,4.4192,4.413,4.4122,4.4115,4.4105,4.4191,4.4191,4.4257,4.4257,4.4258]}]]